Weather History for KCEF - December, 2013

Change the Weather History Date:

Sunday, December 8, 2013

  Actual Average Record
Temperature  
Mean Temperature 24 °F -  
Max Temperature 30 °F 38 °F 51 °F (2004)
Min Temperature 17 °F 23 °F 7 °F (2008)
Degree Days  
Heating Degree Days 42    
Moisture  
Dew Point 18 °F    
Average Humidity 71    
Maximum Humidity 98    
Minimum Humidity 51    
Precipitation  
Precipitation 0.00 in - - ()
Sea Level Pressure  
Sea Level Pressure 30.54 in    
Wind  
Wind Speed 2 mph (East)    
Max Wind Speed 6 mph    
Max Gust Speed -    
Visibility 10 miles    
Events Snow    
Averages and records for this station are not official NWS values.
T = Trace of Precipitation, MM = Missing Value Source: NWS Daily Summary

Daily Weather History Graph

Daily Weather History Graph

Search for Another Location

Airport or City:

Trip Planner

Search our weather history database for the weather conditions in past years. The results will help you decide how hot, cold, wet, or windy it might be!

Date:

Astronomy

Dec. 08, 2013 Rise Set
Actual Time 7:06 AM EST 4:17 PM EST
Civil Twilight 6:34 AM EST 4:49 PM EST
Nautical Twilight 5:59 AM EST 5:24 PM EST
Astronomical Twilight 5:25 AM EST 5:58 PM EST
Moon 11:20 AM EST (12/8) 11:09 PM EST (12/8)
Length of Visible Light 10h 14m
Length of Day
9h 11m
Waxing Crescent, 40% of the Moon is Illuminated
Dec 8
Waxing Crescent
Dec 9
First Quarter
Dec 17
Full
Dec 25
Last Quarter
Jan 1
New

Hourly Weather History & Observations

Time (EST) Temp. Windchill Dew Point Humidity Pressure Visibility Wind Dir Wind Speed Gust Speed Precip Events Conditions
12:58 AM 25.9 °F 21.7 °F 21.6 °F 84% 30.49 in 10.0 mi South 3.5 mph - N/A   Clear
1:58 AM 25.2 °F - 21.2 °F 85% 30.50 in 10.0 mi South 2.3 mph - N/A   Mostly Cloudy
2:58 AM 26.8 °F - 22.1 °F 83% 30.50 in 10.0 mi NW 2.3 mph - N/A   Overcast
3:58 AM 23.2 °F 17.2 °F 18.3 °F 82% 30.52 in 10.0 mi WNW 4.6 mph - N/A   Clear
4:58 AM 23.5 °F - 19.6 °F 85% 30.53 in 10.0 mi Calm Calm - N/A   Scattered Clouds
5:58 AM 20.7 °F 15.8 °F 19.8 °F 96% 30.55 in 10.0 mi WSW 3.5 mph - N/A   Clear
6:58 AM 17.6 °F - 17.2 °F 98% 30.57 in 10.0 mi East 1.2 mph - N/A   Clear
7:58 AM 22.3 °F - 21.7 °F 98% 30.57 in 10.0 mi Calm Calm - N/A   Clear
8:58 AM 26.4 °F - 23.0 °F 87% 30.59 in 10.0 mi SE 2.3 mph - N/A   Clear
9:58 AM 28.2 °F - 22.1 °F 78% 30.61 in 10.0 mi NW 2.3 mph - N/A   Partly Cloudy
10:58 AM 29.5 °F - 17.1 °F 60% 30.61 in 10.0 mi Variable 1.2 mph - N/A   Partly Cloudy
11:58 AM 29.8 °F - 16.3 °F 57% 30.56 in 10.0 mi Calm Calm - N/A   Partly Cloudy
12:58 PM 30.4 °F - 15.8 °F 55% 30.57 in 10.0 mi North 2.3 mph - N/A   Clear
1:58 PM 30.2 °F 26.7 °F 15.1 °F 53% 30.54 in 10.0 mi NNE 3.5 mph - N/A   Scattered Clouds
2:58 PM 30.0 °F - 14.0 °F 51% 30.53 in 10.0 mi Calm Calm - N/A   Scattered Clouds
3:58 PM 29.8 °F - 15.4 °F 55% 30.56 in 10.0 mi East 2.3 mph - N/A   Mostly Cloudy
4:58 PM 28.9 °F - 16.7 °F 60% 30.57 in 10.0 mi Calm Calm - N/A   Overcast
5:58 PM 28.9 °F - 15.6 °F 58% 30.55 in 10.0 mi ESE 2.3 mph - N/A   Overcast
6:58 PM 28.4 °F - 18.5 °F 66% 30.55 in 10.0 mi East 2.3 mph - N/A   Overcast
7:58 PM 28.9 °F - 17.1 °F 61% 30.55 in 10.0 mi ESE 2.3 mph - N/A   Mostly Cloudy
8:58 PM 28.9 °F - 16.3 °F 59% 30.53 in 10.0 mi East 2.3 mph - N/A   Scattered Clouds
9:58 PM 28.8 °F 23.7 °F 16.9 °F 61% 30.50 in 10.0 mi ENE 4.6 mph - N/A   Partly Cloudy
10:58 PM 28.4 °F - 17.6 °F 64% 30.49 in 10.0 mi Variable 2.3 mph - N/A   Mostly Cloudy
11:51 PM 28.4 °F 23.3 °F 17.6 °F 64% 30.47 in 10.0 mi NE 4.6 mph - N/A Snow Light Snow
11:58 PM 28.4 °F 22.2 °F 18.3 °F 66% 30.49 in 10.0 mi NE 5.8 mph - 0.00 in Snow Light Snow